"Timestamp","TZ","WindDir_Mean (deg)","WindSpd_Mean (km/h)","WindSpd_Min (km/h)","WindSpd_Max (km/h)","Temp_Mean (deg)","RH_Mean (%)","MSLP_Mean (hPa)","Rain_Acc (mm)","Rain_Intensity (mm/h)","Hail_Acc (hits/cm2)","Hail_Intensity (hits/cm2hr)","Solar_Mean (W/m2)"
2018/06/16 00:00:00.010,n,296,2.52,2.16,2.88,13.9,50.1,1022.22,0,0,0,0,0.024376
2018/06/16 00:01:00.000,n,176,0.72,0.36,1.08,13.9,50.2,1022.22,0,0,0,0,0.026131
2018/06/16 00:02:00.000,n,266,1.44,1.08,1.44,13.9,53.2,1022.22,0,0,0,0,0.028725
2018/06/16 00:03:00.000,n,258,2.88,2.52,2.88,13.9,50,1022.22,0,0,0,0,0.021782
2018/06/16 00:04:00.000,n,254,2.16,2.16,2.52,13.8,50.2,1022.22,0,0,0,0,0.022659
2018/06/16 00:05:00.000,n,260,1.8,1.08,2.16,13.8,50.5,1022.22,0,0,0,0,0.021782
2018/06/16 00:06:00.009,n,275,1.8,1.44,2.16,13.7,50.4,1022.22,0,0,0,0,0.020905
2018/06/16 00:07:00.005,n,271,2.88,2.52,3.24,13.7,50.4,1022.22,0,0,0,0,0.022659
2018/06/16 00:08:00.004,n,227,2.52,2.16,2.88,13.7,49.9,1022.22,0,0,0,0,0.023499
2018/06/16 00:09:00.001,n,266,2.88,2.52,3.24,13.7,49.4,1022.22,0,0,0,0,0.023499
2018/06/16 00:10:00.000,n,267,2.52,1.8,3.24,13.6,49,1022.22,0,0,0,0,0.020027
2018/06/16 00:11:00.000,n,308,1.44,1.08,1.8,13.7,50.2,1022.22,0,0,0,0,0.017433
2018/06/16 00:12:00.000,n,259,1.08,0.72,1.08,13.7,50.3,1022.22,0,0,0,0,0.017433
2018/06/16 00:13:00.005,n,292,1.44,1.08,1.8,13.6,50.2,1022.22,0,0,0,0,0.023499
2018/06/16 00:14:00.003,n,269,1.08,1.08,1.8,13.6,50.5,1022.22,0,0,0,0,0.01915
2018/06/16 00:15:00.000,n,292,1.08,0.72,1.08,13.6,50.7,1022.22,0,0,0,0,0.026093
2018/06/16 00:16:00.008,n,275,0.72,0.36,1.08,13.6,55.9,1022.22,0,0,0,0,0.028725
2018/06/16 00:17:00.008,n,316,1.44,1.08,1.8,13.5,56.4,1022.22,0,0,0,0,0.031319
2018/06/16 00:18:00.005,n,353,1.44,1.44,1.8,13.5,56.8,1022.22,0,0,0,0,0.02697
2018/06/16 00:19:00.000,n,42,1.08,0.72,1.08,13.5,58,1022.22,0,0,0,0,0.02697
2018/06/16 00:20:00.001,n,21,0.36,0.36,0.72,13.5,60.2,1022.22,0,0,0,0,0.028725
2018/06/16 00:21:00.003,n,266,0.36,0,0.36,13.4,59.3,1022.22,0,0,0,0,0.033951
2018/06/16 00:22:00.000,n,63,0.72,0.36,0.72,13.4,60.8,1022.22,0,0,0,0,0.028725
2018/06/16 00:23:00.000,n,214,0.36,0.36,0.36,13.3,61.1,1022.22,0,0,0,0,0.028725
2018/06/16 00:24:00.000,n,312,0.72,0.36,1.44,13.3,61.3,1022.22,0,0,0,0,0.029602
2018/06/16 00:25:00.010,n,84,0.72,0.72,1.08,13.2,61.8,1022.22,0,0,0,0,0.023499
2018/06/16 00:26:00.008,n,190,0.36,0.36,0.72,13.2,60.6,1022.22,0,0,0,0,0.026093
2018/06/16 00:27:00.004,n,7,1.08,0.72,1.44,13.1,61,1022.22,0,0,0,0,0.023499
2018/06/16 00:28:00.001,n,271,1.44,1.44,1.8,13,59.3,1022.22,0,0,0,0,0.025253
2018/06/16 00:29:00.000,n,219,1.08,1.08,1.44,12.9,59.5,1022.22,0,0,0,0,0.022621
2018/06/16 00:30:00.000,n,285,0.72,0.72,1.08,12.9,59.3,1022.22,0,0,0,0,0.023499
2018/06/16 00:31:00.000,n,271,0.72,0.36,1.08,12.8,57.7,1022.22,0,0,0,0,0.021744
2018/06/16 00:32:00.000,n,282,2.16,1.8,2.52,12.7,55.5,1022.22,0,0,0,0,0.022621
2018/06/16 00:33:00.006,n,273,1.08,1.08,1.8,12.7,55.4,1022.22,0,0,0,0,0.023499
2018/06/16 00:34:00.003,n,333,1.08,0.72,1.44,12.7,57.3,1022.22,0,0,0,0,0.024414
2018/06/16 00:35:00.000,n,291,2.16,1.44,2.52,12.8,58.1,1022.22,0,0,0,0,0.036583
2018/06/16 00:36:00.012,n,339,0.72,0.72,1.44,12.8,58.3,1022.22,0,0,0,0,0.031357
2018/06/16 00:37:00.000,n,274,2.16,2.16,2.16,12.9,57.5,1022.12,0,0,0,0,0.033112
2018/06/16 00:38:00.000,n,291,1.44,1.08,2.16,12.9,57.8,1022.12,0,0,0,0,0.029602
2018/06/16 00:39:00.004,n,313,1.44,1.08,1.44,12.9,58.4,1022.22,0,0,0,0,0.027008
2018/06/16 00:40:00.001,n,288,2.16,1.8,2.52,13,57.3,1022.22,0,0,0,0,0.027008
2018/06/16 00:41:00.000,n,293,3.24,2.88,3.6,13,56.7,1022.22,0,0,0,0,0.027885
2018/06/16 00:42:00.000,n,285,3.96,3.6,4.32,13.1,55.9,1022.22,0,0,0,0,0.023537
2018/06/16 00:43:00.008,n,276,2.52,2.16,2.88,13.1,54.8,1022.22,0,0,0,0,0.026131
2018/06/16 00:44:00.006,n,264,2.88,2.52,3.24,13.1,53.8,1022.22,0,0,0,0,0.032234
2018/06/16 00:45:00.003,n,303,3.6,2.88,3.96,13.2,53.4,1022.22,0,0,0,0,0.025253
2018/06/16 00:46:00.000,n,282,3.96,3.6,4.32,13.2,53.7,1022.22,0,0,0,0,0.026131
2018/06/16 00:47:00.000,n,276,3.24,2.88,3.24,13.3,52.2,1022.22,0,0,0,0,0.023537
2018/06/16 00:48:00.000,n,302,3.6,2.52,4.68,13.3,51.4,1022.22,0,0,0,0,0.025253
2018/06/16 00:49:00.000,n,264,2.88,2.88,2.88,13.4,51.7,1022.22,0,0,0,0,0.020905
2018/06/16 00:50:00.005,n,266,3.24,2.88,3.6,13.4,50.8,1022.22,0,0,0,0,0.023537
2018/06/16 00:51:00.003,n,258,3.24,2.88,3.6,13.4,51.5,1022.22,0,0,0,0,0.025253
2018/06/16 00:52:00.000,n,254,2.88,1.8,3.24,13.4,51.2,1022.22,0,0,0,0,0.020905
2018/06/16 00:53:00.013,n,259,4.32,3.96,4.68,13.4,51.7,1022.22,0,0,0,0,0.024414
2018/06/16 00:54:00.011,n,282,2.88,2.52,3.6,13.4,50.4,1022.22,0,0,0,0,0.020027
2018/06/16 00:55:00.000,n,265,2.52,2.52,2.88,13.4,51.7,1022.22,0,0,0,0,0.021782
2018/06/16 00:56:00.000,n,272,2.52,2.16,3.24,13.4,51.3,1022.22,0,0,0,0,0.022621
2018/06/16 00:57:00.003,n,265,2.88,2.52,3.24,13.4,51,1022.22,0,0,0,0,0.020905
2018/06/16 00:58:00.000,n,270,3.24,2.88,3.96,13.4,50.9,1022.22,0,0,0,0,0.020905
2018/06/16 00:59:00.000,n,299,2.52,2.16,3.24,13.3,51.1,1022.22,0,0,0,0,0.017433
2018/06/16 01:00:00.000,n,292,2.52,2.16,3.24,13.3,51.7,1022.22,0,0,0,0,0.019188
2018/06/16 01:01:00.008,n,331,1.8,1.44,2.52,13.3,53.6,1022.22,0,0,0,0,0.027885
2018/06/16 01:02:00.005,n,286,3.24,2.52,3.96,13.3,52.5,1022.22,0,0,0,0,0.033112
2018/06/16 01:03:00.003,n,260,2.88,2.88,2.88,13.3,53.2,1022.22,0,0,0,0,0.035706
2018/06/16 01:04:00.000,n,280,3.24,3.24,3.96,13.3,52.7,1022.22,0,0,0,0,0.038338
2018/06/16 01:05:00.000,n,258,3.96,3.96,4.68,13.2,52.9,1022.22,0,0,0,0,0.033989
2018/06/16 01:06:00.000,n,279,3.6,3.24,3.96,13.2,53.3,1022.22,0,0,0,0,0.033989
2018/06/16 01:07:00.000,n,262,2.52,2.16,2.88,13.2,54.6,1022.22,0,0,0,0,0.036583
2018/06/16 01:08:00.004,n,260,3.24,3.24,3.6,13.1,54.5,1022.22,0,0,0,0,0.030479
2018/06/16 01:09:00.002,n,252,3.6,3.6,3.96,13.1,53.9,1022.22,0,0,0,0,0.027885
2018/06/16 01:10:00.000,n,258,2.52,2.16,3.24,13.1,54.9,1022.22,0,0,0,0,0.027008
2018/06/16 01:11:00.012,n,275,1.8,1.08,2.16,13,54.5,1022.22,0,0,0,0,0.036583
2018/06/16 01:12:00.010,n,241,3.96,3.6,3.96,13,54.2,1022.22,0,0,0,0,0.032234
2018/06/16 01:13:00.000,n,272,1.8,1.44,1.8,13,54.3,1022.22,0,0,0,0,0.032234
2018/06/16 01:14:00.003,n,258,1.44,1.08,1.8,13,54.4,1022.22,0,0,0,0,0.035706
2018/06/16 01:15:00.000,n,276,1.08,0.36,2.16,12.9,54.7,1022.32,0,0,0,0,0.032234
2018/06/16 01:16:00.000,n,287,1.08,0.36,1.44,12.9,54.7,1022.32,0,0,0,0,0.030479
2018/06/16 01:17:00.000,n,240,1.44,0.36,2.88,12.9,55.9,1022.32,0,0,0,0,0.028725
2018/06/16 01:18:00.009,n,160,0.36,0.36,0.72,12.9,59.7,1022.32,0,0,0,0,0.030479
2018/06/16 01:19:00.007,n,137,0.36,0.36,0.72,12.9,60.6,1022.32,0,0,0,0,0.033112
2018/06/16 01:20:00.004,n,199,0.72,0.36,1.08,12.9,62.5,1022.32,0,0,0,0,0.030479
2018/06/16 01:21:00.002,n,128,0.36,0,0.72,12.9,62.4,1022.32,0,0,0,0,0.028725
2018/06/16 01:22:00.000,n,146,1.08,0.72,1.08,12.8,63.3,1022.32,0,0,0,0,0.028725
2018/06/16 01:23:00.000,n,106,1.44,1.08,1.44,12.7,64.199996,1022.32,0,0,0,0,0.028725
2018/06/16 01:24:00.000,n,173,0.72,0.72,1.08,12.7,64.4,1022.32,0,0,0,0,0.026131
2018/06/16 01:25:00.000,n,147,1.08,1.08,1.44,12.6,64.4,1022.32,0,0,0,0,0.025291
2018/06/16 01:26:00.005,n,303,1.44,1.08,1.8,12.5,64.300004,1022.32,0,0,0,0,0.024376
2018/06/16 01:27:00.003,n,237,1.8,1.44,2.16,12.4,64,1022.22,0,0,0,0,0.027885
2018/06/16 01:28:00.000,n,297,1.44,1.08,1.8,12.3,64,1022.22,0,0,0,0,0.024376
2018/06/16 01:29:00.014,n,229,1.08,0.36,1.08,12.2,62.6,1022.22,0,0,0,0,0.027008
2018/06/16 01:30:00.011,n,289,2.16,1.8,2.52,12.1,62.9,1022.22,0,0,0,0,0.022659
2018/06/16 01:31:00.000,n,265,0.72,0.36,0.72,12.1,62.5,1022.22,0,0,0,0,0.023499
2018/06/16 01:32:00.000,n,282,2.88,2.52,3.24,12.1,63.3,1022.22,0,0,0,0,0.024376
2018/06/16 01:33:00.003,n,270,1.8,1.44,2.16,12.1,62.3,1022.32,0,0,0,0,0.020943
2018/06/16 01:34:00.000,n,44,1.08,1.08,1.08,12.1,65,1022.22,0,0,0,0,0.023499
2018/06/16 01:35:00.000,n,40,2.52,1.08,3.24,12.2,65.800004,1022.22,0,0,0,0,0.023499
2018/06/16 01:36:00.010,n,135,0.72,0.36,1.44,12.2,65.800004,1022.22,0,0,0,0,0.021782
2018/06/16 01:37:00.007,n,108,1.08,1.08,1.44,12.3,66.6,1022.22,0,0,0,0,0.024376
2018/06/16 01:38:00.005,n,65,2.16,1.8,2.16,12.3,67.3,1022.22,0,0,0,0,0.018311
2018/06/16 01:39:00.002,n,145,5.04,4.68,5.4,12.3,68,1022.22,0,0,0,0,0.023537
2018/06/16 01:40:00.000,n,142,2.52,1.8,2.88,12.2,68.3,1022.22,0,0,0,0,0.026131
2018/06/16 01:41:00.000,n,139,2.88,2.52,3.24,12.1,69.1,1022.22,0,0,0,0,0.028763
2018/06/16 01:42:00.000,n,149,4.68,4.32,5.04,12,69.9,1022.22,0,0,0,0,0.031395
2018/06/16 01:43:00.004,n,153,6.48,6.12,6.48,11.8,70.5,1022.22,0,0,0,0,0.026131
2018/06/16 01:44:00.001,n,145,6.48,6.12,6.84,11.7,71.3,1022.22,0,0,0,0,0.025253
2018/06/16 01:45:00.000,n,152,4.68,3.96,5.4,11.5,72.3,1022.22,0,0,0,0,0.029602
2018/06/16 01:46:00.011,n,157,6.48,6.12,7.2,11.4,72.8,1022.22,0,0,0,0,0.026131
2018/06/16 01:47:00.008,n,158,3.96,3.6,4.32,11.3,73.3,1022.22,0,0,0,0,0.026131
2018/06/16 01:48:00.005,n,159,3.96,3.6,4.32,11.2,73.6,1022.22,0,0,0,0,0.028763
2018/06/16 01:49:00.000,n,163,3.6,2.52,3.96,11.2,73.3,1022.22,0,0,0,0,0.024414
2018/06/16 01:50:00.000,n,150,5.76,5.4,6.48,11.2,73.4,1022.22,0,0,0,0,0.027008
2018/06/16 01:51:00.000,n,158,2.88,2.52,3.24,11.2,73,1022.22,0,0,0,0,0.024414
2018/06/16 01:52:00.000,n,146,3.96,3.6,4.32,11.2,73.2,1022.22,0,0,0,0,0.025253
2018/06/16 01:53:00.007,n,139,3.24,2.88,3.6,11.2,73,1022.12,0,0,0,0,0.025253
2018/06/16 01:54:00.005,n,154,3.96,3.96,4.32,11.1,72.7,1022.12,0,0,0,0,0.020065
2018/06/16 01:55:00.002,n,124,3.96,3.6,4.68,11.1,72.3,1022.12,0,0,0,0,0.018272
2018/06/16 01:56:00.000,n,163,2.88,2.52,3.24,11,71.6,1022.22,0,0,0,0,0.019188
2018/06/16 01:57:00.012,n,150,4.68,4.32,4.68,11,71.4,1022.22,0,0,0,0,0.031395
2018/06/16 01:58:00.000,n,134,4.32,3.6,5.4,10.9,71.1,1022.12,0,0,0,0,0.035744
2018/06/16 01:59:00.000,n,156,3.6,3.24,3.96,10.9,71.1,1022.22,0,0,0,0,0.031395
2018/06/16 02:00:00.001,n,150,1.8,1.8,2.52,10.9,71.1,1022.12,0,0,0,0,0.033112
2018/06/16 02:01:00.000,n,139,2.88,2.52,2.88,11,71.4,1022.12,0,0,0,0,0.027008
2018/06/16 02:02:00.000,n,134,2.52,1.8,2.88,11,71.6,1022.12,0,0,0,0,0.027885
2018/06/16 02:03:00.008,n,148,3.24,2.88,3.6,11,71.7,1022.12,0,0,0,0,0.025253
2018/06/16 02:04:00.006,n,150,3.6,3.6,3.96,11,72,1022.12,0,0,0,0,0.029602
2018/06/16 02:05:00.002,n,149,4.68,4.68,5.04,11,72.3,1022.12,0,0,0,0,0.027885
2018/06/16 02:06:00.015,n,172,1.08,0,2.52,11,72.4,1022.12,0,0,0,0,0.030518
2018/06/16 02:07:00.000,n,85,2.88,1.44,4.68,11,71.7,1022.12,0,0,0,0,0.027885
2018/06/16 02:08:00.000,n,153,6.12,5.76,6.84,11,71,1022.12,0,0,0,0,0.024414
2018/06/16 02:09:00.000,n,136,3.96,3.6,3.96,10.9,70.7,1022.12,0,0,0,0,0.026131
2018/06/16 02:10:00.002,n,158,3.24,0.72,5.04,10.9,70,1022.12,0,0,0,0,0.027008
2018/06/16 02:11:00.000,n,173,5.4,4.68,5.76,10.9,69.9,1022.02,0,0,0,0,0.023537
2018/06/16 02:12:00.000,n,167,2.88,1.8,3.96,11,70.2,1022.02,0,0,0,0,0.022659
2018/06/16 02:13:00.011,n,101,0.72,0.36,1.8,11,70.3,1022.02,0,0,0,0,0.027885
2018/06/16 02:14:00.008,n,124,3.6,2.88,3.96,11,70.4,1022.02,0,0,0,0,0.026131
2018/06/16 02:15:00.005,n,181,1.44,1.44,1.8,11,70.7,1022.12,0,0,0,0,0.025253
2018/06/16 02:16:00.002,n,149,1.44,1.08,1.8,11,70.7,1022.02,0,0,0,0,0.031395
2018/06/16 02:17:00.000,n,157,2.52,1.8,2.52,11,70.4,1022.02,0,0,0,0,0.032234
2018/06/16 02:18:00.000,n,169,1.08,0.36,1.44,11,70.3,1022.02,0,0,0,0,0.033112
2018/06/16 02:19:00.000,n,139,2.88,2.52,2.88,10.9,70.3,1022.02,0,0,0,0,0.033989
2018/06/16 02:20:00.006,n,169,2.52,1.8,2.88,10.9,70.1,1022.02,0,0,0,0,0.031395
2018/06/16 02:21:00.004,n,147,2.88,2.52,3.24,10.9,70,1022.02,0,0,0,0,0.027008
2018/06/16 02:22:00.001,n,157,2.52,2.16,2.52,10.9,69.6,1022.02,0,0,0,0,0.033112
2018/06/16 02:23:00.014,n,204,1.8,1.44,2.16,10.8,69.5,1022.02,0,0,0,0,0.033112
2018/06/16 02:24:00.011,n,154,2.88,2.16,4.32,10.8,69.4,1022.02,0,0,0,0,0.027008
2018/06/16 02:25:00.000,n,155,3.24,3.24,3.24,10.8,69.1,1022.02,0,0,0,0,0.025291
2018/06/16 02:26:00.000,n,143,2.52,2.16,2.88,10.8,69.4,1022.02,0,0,0,0,0.021782
2018/06/16 02:27:00.002,n,141,3.6,3.24,3.96,10.8,68.6,1022.02,0,0,0,0,0.025291
2018/06/16 02:28:00.000,n,165,2.88,2.52,3.24,10.8,68.9,1022.02,0,0,0,0,0.026131
2018/06/16 02:29:00.000,n,152,3.24,2.88,3.24,10.8,68.7,1022.02,0,0,0,0,0.035744
2018/06/16 02:30:00.000,n,176,2.16,1.08,2.88,10.8,69.1,1022.02,0,0,0,0,0.026131
2018/06/16 02:31:00.008,n,180,1.44,1.08,1.8,10.8,69.5,1022.02,0,0,0,0,0.021782
2018/06/16 02:32:00.007,n,131,2.16,1.8,2.16,10.8,70.4,1022.02,0,0,0,0,0.020065
2018/06/16 02:33:00.004,n,158,1.8,1.44,1.8,10.9,70.4,1022.02,0,0,0,0,0.021782
2018/06/16 02:34:00.001,n,170,0.72,0.72,0.72,10.8,70.5,1022.02,0,0,0,0,0.026131
2018/06/16 02:35:00.000,n,328,1.08,0.72,1.44,10.8,71.1,1022.02,0,0,0,0,0.020943
2018/06/16 02:36:00.000,n,95,2.88,2.16,3.6,10.8,71.6,1022.02,0,0,0,0,0.025291
2018/06/16 02:37:00.000,n,85,1.8,1.08,2.16,10.8,71.8,1022.02,0,0,0,0,0.018311
2018/06/16 02:38:00.006,n,29,0.72,0.36,1.08,10.8,71.9,1022.02,0,0,0,0,0.027885
2018/06/16 02:39:00.000,n,108,1.44,0.72,1.8,10.8,71.9,1022.02,0,0,0,0,0.02964
2018/06/16 02:40:00.000,n,208,0.36,0.36,0.36,10.7,71.4,1022.02,0,0,0,0,0.025291
2018/06/16 02:41:00.010,n,69,2.16,1.44,2.52,10.7,71.4,1022.02,0,0,0,0,0.024414
2018/06/16 02:42:00.006,n,144,1.08,1.08,1.8,10.6,71.3,1022.02,0,0,0,0,0.025291
2018/06/16 02:43:00.000,n,108,1.08,1.08,1.44,10.6,71.1,1022.02,0,0,0,0,0.032272
2018/06/16 02:44:00.001,n,127,1.08,0.72,1.08,10.5,71,1022.02,0,0,0,0,0.031395
2018/06/16 02:45:00.000,n,139,1.44,1.08,1.8,10.5,71,1022.02,0,0,0,0,0.031395
2018/06/16 02:46:00.000,n,137,2.16,2.16,2.52,10.5,71,1022.02,0,0,0,0,0.025291
2018/06/16 02:47:00.009,n,113,1.44,1.44,1.8,10.4,70.9,1021.92,0,0,0,0,0.027046
2018/06/16 02:48:00.006,n,159,0.36,0,0.36,10.4,70.7,1021.92,0,0,0,0,0.022659
2018/06/16 02:49:00.004,n,109,1.08,0.72,1.44,10.4,70.5,1021.92,0,0,0,0,0.024414
2018/06/16 02:50:00.000,n,113,0.72,0.36,0.72,10.4,70.5,1021.92,0,0,0,0,0.023537
2018/06/16 02:51:00.014,n,285,1.08,0.72,1.08,10.4,70.5,1021.92,0,0,0,0,0.021782
2018/06/16 02:52:00.000,n,250,1.08,0.72,1.08,10.4,70.4,1021.92,0,0,0,0,0.025253
2018/06/16 02:53:00.000,n,312,0.72,0.72,0.72,10.4,70.1,1021.92,0,0,0,0,0.032196
2018/06/16 02:54:00.002,n,216,0.72,0.72,1.08,10.3,69.9,1021.92,0,0,0,0,0.030479
2018/06/16 02:55:00.000,n,300,0.72,0.36,0.72,10.3,69.7,1021.92,0,0,0,0,0.032196
2018/06/16 02:56:00.000,n,186,0.36,0.36,0.72,10.3,69.8,1021.92,0,0,0,0,0.029602
2018/06/16 02:57:00.009,n,149,0.72,0.72,1.08,10.2,69.6,1021.92,0,0,0,0,0.032196
2018/06/16 02:58:00.007,n,191,0.72,0.72,0.72,10.2,69.6,1021.92,0,0,0,0,0.032196
2018/06/16 02:59:00.005,n,140,1.8,1.44,2.16,10.2,69.9,1021.92,0,0,0,0,0.031357
2018/06/16 03:00:00.002,n,150,2.16,2.16,2.16,10.2,68,1021.92,0,0,0,0,0.031357
2018/06/16 03:01:00.000,n,141,3.24,3.24,3.6,10.3,68,1021.92,0,0,0,0,0.028725
2018/06/16 03:02:00.000,n,143,2.52,2.16,2.88,10.4,67.7,1021.82,0,0,0,0,0.027847
2018/06/16 03:03:00.000,n,194,2.16,1.44,2.88,10.4,67.5,1021.82,0,0,0,0,0.025253
2018/06/16 03:04:00.000,n,179,3.6,3.24,3.6,10.5,67.6,1021.82,0,0,0,0,0.032196
2018/06/16 03:05:00.004,n,178,1.8,1.44,2.16,10.5,67.7,1021.82,0,0,0,0,0.024376
2018/06/16 03:06:00.001,n,192,3.6,2.88,3.96,10.6,67.9,1021.82,0,0,0,0,0.028725
2018/06/16 03:07:00.000,n,150,0.72,0.36,1.08,10.6,67.7,1021.82,0,0,0,0,0.026131
2018/06/16 03:08:00.011,n,179,1.8,1.44,1.8,10.6,67.4,1021.82,0,0,0,0,0.026131
2018/06/16 03:09:00.009,n,125,1.08,1.08,1.44,10.6,67.2,1021.82,0,0,0,0,0.02697
2018/06/16 03:10:00.000,n,142,2.16,1.44,2.52,10.6,67.2,1021.82,0,0,0,0,0.023499
2018/06/16 03:11:00.003,n,224,2.52,1.8,3.24,10.6,66.800004,1021.82,0,0,0,0,0.023499
2018/06/16 03:12:00.001,n,164,1.44,1.08,1.44,10.6,66.6,1021.82,0,0,0,0,0.028725
2018/06/16 03:13:00.000,n,166,1.08,0.72,1.44,10.6,66.699996,1021.82,0,0,0,0,0.020866
2018/06/16 03:14:00.000,n,158,3.6,3.24,3.96,10.6,67,1021.82,0,0,0,0,0.022621
2018/06/16 03:15:00.007,n,144,2.88,2.52,3.24,10.6,67.4,1021.82,0,0,0,0,0.020866
2018/06/16 03:16:00.005,n,156,3.6,3.24,3.96,10.7,67.6,1021.82,0,0,0,0,0.020866
2018/06/16 03:17:00.001,n,143,3.24,2.88,3.6,10.7,67.9,1021.82,0,0,0,0,0.026131
2018/06/16 03:18:00.015,n,171,3.6,3.24,4.68,10.6,68.1,1021.82,0,0,0,0,0.022621
2018/06/16 03:19:00.000,n,142,4.32,3.6,4.68,10.6,68.3,1021.82,0,0,0,0,0.020027
2018/06/16 03:20:00.000,n,139,2.88,2.52,2.88,10.6,68.5,1021.82,0,0,0,0,0.02964
2018/06/16 03:21:00.000,n,147,2.52,2.16,2.88,10.6,68.8,1021.82,0,0,0,0,0.030518
2018/06/16 03:22:00.002,n,138,2.88,1.08,3.24,10.6,68.9,1021.82,0,0,0,0,0.02964
2018/06/16 03:23:00.000,n,129,2.16,1.8,2.88,10.6,68.9,1021.72,0,0,0,0,0.032234
2018/06/16 03:24:00.000,n,141,3.96,2.52,4.68,10.6,69,1021.72,0,0,0,0,0.032234
2018/06/16 03:25:00.010,n,170,1.44,0.72,2.16,10.5,68.9,1021.82,0,0,0,0,0.030518
2018/06/16 03:26:00.007,n,145,5.4,5.04,5.76,10.5,68.7,1021.72,0,0,0,0,0.030518
2018/06/16 03:27:00.004,n,157,5.04,4.68,5.4,10.5,68.2,1021.82,0,0,0,0,0.031357
2018/06/16 03:28:00.000,n,177,1.08,0.72,1.44,10.4,68.5,1021.72,0,0,0,0,0.027885
2018/06/16 03:29:00.000,n,147,3.24,2.88,3.96,10.4,68.4,1021.72,0,0,0,0,0.030518
2018/06/16 03:30:00.000,n,248,2.16,1.8,2.52,10.4,68.5,1021.82,0,0,0,0,0.033112
2018/06/16 03:31:00.000,n,249,0.72,0.36,1.08,10.4,68.4,1021.72,0,0,0,0,0.033112
2018/06/16 03:32:00.007,n,121,0.72,0.36,1.08,10.4,68,1021.82,0,0,0,0,0.032234
2018/06/16 03:33:00.005,n,146,2.52,2.16,3.6,10.4,68.3,1021.72,0,0,0,0,0.033112
2018/06/16 03:34:00.003,n,121,1.44,1.08,1.44,10.4,68.3,1021.72,0,0,0,0,0.02964
2018/06/16 03:35:00.000,n,182,1.08,1.08,1.44,10.4,68.3,1021.72,0,0,0,0,0.028763
2018/06/16 03:36:00.014,n,149,1.8,1.8,2.16,10.3,68.2,1021.72,0,0,0,0,0.034866
2018/06/16 03:37:00.000,n,156,0.72,0.72,0.72,10.3,68.1,1021.82,0,0,0,0,0.028763
2018/06/16 03:38:00.000,n,160,0.36,0.36,0.36,10.3,68,1021.72,0,0,0,0,0.028763
2018/06/16 03:39:00.000,n,303,1.44,0.72,1.8,10.3,68.4,1021.72,0,0,0,0,0.02964
2018/06/16 03:40:00.002,n,87,1.44,1.08,1.8,10.3,69.1,1021.72,0,0,0,0,0.030518
2018/06/16 03:41:00.000,n,236,2.16,1.8,2.52,10.3,69.3,1021.72,0,0,0,0,0.027008
2018/06/16 03:42:00.000,n,119,1.44,1.08,1.44,10.3,69.3,1021.72,0,0,0,0,0.027008
2018/06/16 03:43:00.010,n,190,0.72,0.72,1.08,10.3,69.3,1021.72,0,0,0,0,0.026169
2018/06/16 03:44:00.007,n,123,1.44,1.08,1.8,10.3,68.9,1021.72,0,0,0,0,0.026169
2018/06/16 03:45:00.005,n,174,0.72,0.36,0.72,10.2,68.7,1021.72,0,0,0,0,0.027008
2018/06/16 03:46:00.000,n,217,1.44,1.08,1.44,10.2,68.8,1021.72,0,0,0,0,0.025291
2018/06/16 03:47:00.000,n,79,0.36,0,0.36,10.2,68.5,1021.62,0,0,0,0,0.028763
2018/06/16 03:48:00.000,n,296,0.72,0.36,1.08,10.1,68.2,1021.72,0,0,0,0,0.028763
2018/06/16 03:49:00.000,n,183,1.44,1.08,2.16,10.1,67.4,1021.62,0,0,0,0,0.023537
2018/06/16 03:50:00.010,n,309,0.72,0,1.44,10.1,67.3,1021.62,0,0,0,0,0.027885
2018/06/16 03:51:00.007,n,221,0.72,0.36,1.44,10.1,65.699996,1021.62,0,0,0,0,0.026169
2018/06/16 03:52:00.005,n,199,1.8,1.08,1.8,10.1,65,1021.62,0,0,0,0,0.024376
2018/06/16 03:53:00.004,n,290,2.52,1.8,3.24,10.1,64.6,1021.62,0,0,0,0,0.024376
2018/06/16 03:54:00.002,n,44,1.8,1.08,1.8,10.2,65.1,1021.62,0,0,0,0,0.027008
2018/06/16 03:55:00.000,n,58,1.08,0.72,1.44,10.3,65.6,1021.62,0,0,0,0,0.021782
2018/06/16 03:56:00.000,n,68,2.88,2.52,3.6,10.4,66.699996,1021.52,0,0,0,0,0.023537
2018/06/16 03:57:00.000,n,20,1.08,1.08,1.08,10.4,67.2,1021.62,0,0,0,0,0.021782
2018/06/16 03:58:00.000,n,62,3.24,2.88,3.6,10.5,67.6,1021.62,0,0,0,0,0.020905
2018/06/16 03:59:00.005,n,35,1.08,0.72,1.08,10.5,68,1021.62,0,0,0,0,0.020027
2018/06/16 04:00:00.003,n,309,1.08,1.08,1.44,10.4,67.4,1021.62,0,0,0,0,0.027885
2018/06/16 04:01:00.000,n,322,1.44,0.72,1.8,10.4,67.6,1021.52,0,0,0,0,0.026169
2018/06/16 04:02:00.013,n,317,0.72,0.36,1.08,10.4,67.1,1021.52,0,0,0,0,0.021782
2018/06/16 04:03:00.011,n,33,1.08,0.72,1.08,10.4,67.4,1021.52,0,0,0,0,0.026169
2018/06/16 04:04:00.000,n,224,0.72,0.36,0.72,10.4,67.8,1021.52,0,0,0,0,0.037498
2018/06/16 04:05:00.000,n,304,1.08,0.72,1.44,10.4,68.6,1021.52,0,0,0,0,0.029602
2018/06/16 04:06:00.001,n,169,1.44,1.08,1.8,10.3,67.8,1021.52,0,0,0,0,0.031357
2018/06/16 04:07:00.000,n,117,1.8,1.44,2.16,10.3,66,1021.52,0,0,0,0,0.030518
2018/06/16 04:08:00.000,n,240,2.16,1.8,2.52,10.2,66.6,1021.52,0,0,0,0,0.029602
2018/06/16 04:09:00.008,n,312,0.72,0.72,1.44,10.2,67.5,1021.52,0,0,0,0,0.033989
2018/06/16 04:10:00.005,n,145,1.44,1.44,1.8,10.3,67.3,1021.52,0,0,0,0,0.032234
2018/06/16 04:11:00.002,n,119,0.72,0.36,0.72,10.3,68.6,1021.52,0,0,0,0,0.033989
2018/06/16 04:12:00.015,n,63,1.44,0.72,1.8,10.3,69,1021.52,0,0,0,0,0.027008
2018/06/16 04:13:00.000,n,26,1.44,1.08,1.8,10.4,69.4,1021.52,0,0,0,0,0.026169
2018/06/16 04:14:00.000,n,75,1.8,0.72,2.16,10.4,69.4,1021.52,0,0,0,0,0.027885
2018/06/16 04:15:00.000,n,282,0.72,0,1.44,10.4,69.6,1021.52,0,0,0,0,0.031357
2018/06/16 04:16:00.004,n,3,1.08,0.36,1.8,10.4,69.5,1021.52,0,0,0,0,0.030518
2018/06/16 04:17:00.002,n,82,0.72,0.36,1.44,10.3,69.4,1021.52,0,0,0,0,0.028763
2018/06/16 04:18:00.000,n,50,1.08,0.72,1.8,10.3,69.6,1021.52,0,0,0,0,0.032234
2018/06/16 04:19:00.012,n,116,0.36,0.36,0.72,10.3,69.7,1021.52,0,0,0,0,0.024414
2018/06/16 04:20:00.010,n,117,0.36,0,0.36,10.3,69.8,1021.52,0,0,0,0,0.023537
2018/06/16 04:21:00.007,n,83,0.36,0,1.08,10.2,69.8,1021.52,0,0,0,0,0.028763
2018/06/16 04:22:00.000,n,94,1.08,0.72,1.44,10.2,69.9,1021.52,0,0,0,0,0.027885
2018/06/16 04:23:00.000,n,101,1.8,1.44,2.16,10.2,69.9,1021.52,0,0,0,0,0.025253
2018/06/16 04:24:00.000,n,135,1.44,0.72,1.44,10.1,69.8,1021.52,0,0,0,0,0.027885
2018/06/16 04:25:00.000,n,127,1.08,0.72,1.08,10.1,69.4,1021.52,0,0,0,0,0.028763
2018/06/16 04:26:00.008,n,135,0.72,0.36,1.44,10.1,70,1021.52,0,0,0,0,0.031357
2018/06/16 04:27:00.005,n,316,0.72,0.36,1.08,10.1,70.4,1021.52,0,0,0,0,0.023537
2018/06/16 04:28:00.002,n,242,0.72,0.36,1.08,10.2,70.3,1021.52,0,0,0,0,0.027008
2018/06/16 04:29:00.000,n,349,2.16,2.16,2.52,10.2,70.1,1021.52,0,0,0,0,0.028763
2018/06/16 04:30:00.013,n,7,1.8,1.44,1.8,10.3,69.9,1021.52,0,0,0,0,0.030518
2018/06/16 04:31:00.000,n,265,2.16,1.8,2.52,10.3,69.3,1021.52,0,0,0,0,0.027885
2018/06/16 04:32:00.000,n,290,1.8,1.8,2.16,10.2,69.2,1021.52,0,0,0,0,0.026169
2018/06/16 04:33:00.000,n,268,1.8,1.44,2.16,10.2,68.7,1021.52,0,0,0,0,0.023537
2018/06/16 04:34:00.001,n,145,0.36,0.36,0.72,10.1,68.6,1021.52,0,0,0,0,0.026169
2018/06/16 04:35:00.000,n,230,1.8,1.44,1.8,10.1,68.7,1021.52,0,0,0,0,0.025253
2018/06/16 04:36:00.000,n,215,0.72,0.36,1.08,10.1,68.6,1021.52,0,0,0,0,0.023537
2018/06/16 04:37:00.009,n,258,0.72,0.36,0.72,10,68.6,1021.52,0,0,0,0,0.027008
2018/06/16 04:38:00.005,n,83,0.72,0.36,1.44,10,68.8,1021.52,0,0,0,0,0.028763
2018/06/16 04:39:00.004,n,146,1.08,0.72,1.08,10,68.5,1021.52,0,0,0,0,0.028763
2018/06/16 04:40:00.003,n,124,1.08,1.08,1.44,10,68.1,1021.52,0,0,0,0,0.023537
2018/06/16 04:41:00.000,n,90,1.44,1.08,1.8,10,68.5,1021.52,0,0,0,0,0.026169
2018/06/16 04:42:00.000,n,281,1.08,0.72,1.8,10,68.6,1021.52,0,0,0,0,0.024414
2018/06/16 04:43:00.000,n,88,2.16,0.72,3.24,10,69.1,1021.52,0,0,0,0,0.020905
2018/06/16 04:44:00.006,n,133,1.8,1.8,2.16,10.1,68.5,1021.52,0,0,0,0,0.020905
2018/06/16 04:45:00.003,n,103,0.72,0.36,1.08,10.1,68.5,1021.52,0,0,0,0,0.023537
2018/06/16 04:46:00.000,n,111,0.72,0.36,1.08,10.1,68.4,1021.52,0,0,0,0,0.026169
2018/06/16 04:47:00.013,n,100,1.08,0.36,1.8,10.1,68.4,1021.52,0,0,0,0,0.024414
2018/06/16 04:48:00.011,n,145,2.52,2.16,2.52,10.1,67.7,1021.52,0,0,0,0,0.020905
2018/06/16 04:49:00.000,n,112,1.44,1.08,1.8,10.1,67.4,1021.52,0,0,0,0,0.022659
2018/06/16 04:50:00.000,n,165,2.16,1.8,2.88,10.1,67.2,1021.52,0,0,0,0,0.018272
2018/06/16 04:51:00.002,n,132,0.72,0.36,1.08,10,66.4,1021.52,0,0,0,0,0.020905
2018/06/16 04:52:00.000,n,218,0.72,0.36,0.72,10,66.199996,1021.52,0,0,0,0,0.020065
2018/06/16 04:53:00.000,n,35,2.16,1.44,2.52,10,67.3,1021.52,0,0,0,0,0.025253
2018/06/16 04:54:00.009,n,1,1.44,0.36,1.8,10,67.1,1021.52,0,0,0,0,0.023537
2018/06/16 04:55:00.005,n,300,1.08,0.36,1.8,10,67.3,1021.52,0,0,0,0,0.022659